Regional Weather Roundup
Issued by NWS

Home | Current Version | Previous Version | Graphics & Text | Print | Product List | Glossary On
Versions: 1 2 3 4 5 6 7 8 9 10 11 12 13 14 15 16 17 18 19 20 21 22 23 24 25 26 27 28 29 30 31 32 33 34 35 36 37 38 39 40 41 42 43 44 45 46 47 48 49 50
000
ASUS43 KOAX 241402
RWRNE

WEATHER ROUNDUP FOR NEBRASKA
NATIONAL WEATHER SERVICE OMAHA NE
900 AM CDT THU JUL 24 2014

NOTES: SATELLITE DATA IS BEING USED TO AUGMENT CLOUD COVER ABOVE
       12000 FEET.
       "FAIR" INDICATES FEW OR NO CLOUDS BELOW 12,000 FEET WITH NO
       SIGNIFICANT WEATHER AND/OR OBSTRUCTIONS TO VISIBILITY.

  * THESE STATIONS DO NOT REPORT WEATHER SUCH AS RAIN...SNOW OR FOG.

NEZ001>004-019>022-054>056-241500-
NEBRASKA PANHANDLE

CITY           SKY/WX    TMP DP  RH WIND       PRES   REMARKS
SCOTTSBLUFF    MOSUNNY   73  65  75 SE8       29.99F
ALLIANCE       SUNNY     74  66  76 S8        29.99S
CHADRON        SUNNY     78  65  63 SW13      29.91S
SIDNEY         SUNNY     79  61  53 S13G20    30.04F
$$

NEZ057>060-069>072-079>082-241500-
SOUTHWEST NEBRASKA

CITY           SKY/WX    TMP DP  RH WIND       PRES   REMARKS
NORTH PLATTE   SUNNY     73  64  73 S16       30.01F
IMPERIAL       SUNNY     74  67  78 S16       30.02F
MCCOOK         SUNNY     73  66  78 S12       30.03F
$$

NEZ005>010-023>029-035>040-094-241500-
NORTH CENTRAL NEBRASKA

CITY           SKY/WX    TMP DP  RH WIND       PRES   REMARKS
VALENTINE      SUNNY     74  62  66 S13G21    29.95F
BROKEN BOW     SUNNY     73  64  73 S12       30.03F
ORD            SUNNY     72  63  73 SE13G24   30.03F
$$

NEZ041-046>049-061>064-073>077-083>087-241500-
SOUTH CENTRAL NEBRASKA

CITY           SKY/WX    TMP DP  RH WIND       PRES   REMARKS
GRAND ISLAND   SUNNY     71  63  75 S14       30.08F
HASTINGS       SUNNY     71  61  70 S14       30.08F
KEARNEY *      SUNNY     72  63  73 S16G24    30.07S
$$

NEZ011>018-030>034-042>045-241500-
NORTHEAST NEBRASKA

CITY           SKY/WX    TMP DP  RH WIND       PRES   REMARKS
NORFOLK        MOSUNNY   70  60  70 SE17G23   30.11S
COLUMBUS *     SUNNY     72  61  68 SE12      30.11F
TEKAMAH        MOSUNNY   69  61  75 SE7       30.13S
$$

NEZ050>053-065>068-078-088>093-241500-
SOUTHEAST NEBRASKA

CITY           SKY/WX    TMP DP  RH WIND       PRES   REMARKS
LINCOLN        SUNNY     74  60  61 S16       30.13S
OMAHA EPPLEY   PTSUNNY   73  58  59 SE12      30.13S
FALLS CITY     SUNNY     71  62  73 SE9       30.15R
$$

NEZ044-045-051>053-067-241500-
OMAHA AREA

CITY           SKY/WX    TMP DP  RH WIND       PRES   REMARKS
OMAHA EPPLEY   PTSUNNY   73  58  59 SE12      30.13S
OFFUTT AFB     MOSUNNY   72  63  72 SE8       30.13S
$$


USA.gov is the U.S. government's official web portal to all federal, state and local government web resources and services.